EXS052J EGBB-EGNX

Flight info

Callsign EXS052J
Flight time 0h 19m
Altitude 5600
Route UNGAP DCT DTY
Aircraft B738/M-SDE2E3FGHIJ1RWXYZ/LB1

Departure

Time 2026-04-27 08:17
Airport Birmingham Airport (EGBB)

Arrival

Time 2026-04-27 08:36
Airport East Midlands Airport (EGNX)
Time Latitude Longitude Altitude Speed Heading
2026-04-27 07:58 52.45478 -1.73360 320 ft 0 kts 146°
2026-04-27 07:58 52.45476 -1.73357 321 ft 0 kts 146°
2026-04-27 08:10 52.45482 -1.73364 323 ft 2 kts 145°
2026-04-27 08:10 52.45498 -1.73383 322 ft 3 kts 145°
2026-04-27 08:10 52.45515 -1.73401 319 ft 3 kts 150°
2026-04-27 08:11 52.45532 -1.73415 321 ft 3 kts 173°
2026-04-27 08:11 52.45546 -1.73414 320 ft 2 kts 231°
2026-04-27 08:11 52.45546 -1.73416 320 ft 2 kts 236°
2026-04-27 08:11 52.45536 -1.73440 319 ft 2 kts 236°
2026-04-27 08:12 52.45534 -1.73444 323 ft 0 kts 236°
2026-04-27 08:13 52.45525 -1.73466 322 ft 8 kts 236°
2026-04-27 08:14 52.45468 -1.73601 323 ft 20 kts 236°
2026-04-27 08:14 52.45379 -1.73818 322 ft 25 kts 236°
2026-04-27 08:14 52.45307 -1.74010 321 ft 15 kts 267°
2026-04-27 08:14 52.45288 -1.74148 322 ft 14 kts 188°
2026-04-27 08:15 52.45187 -1.74056 322 ft 21 kts 145°
2026-04-27 08:15 52.45043 -1.73894 323 ft 28 kts 145°
2026-04-27 08:15 52.44887 -1.73722 323 ft 22 kts 146°
2026-04-27 08:15 52.44755 -1.73719 323 ft 20 kts 205°
2026-04-27 08:16 52.44670 -1.73893 325 ft 20 kts 236°
2026-04-27 08:16 52.44673 -1.74010 326 ft 13 kts 322°
2026-04-27 08:16 52.44927 -1.74293 324 ft 90 kts 326°
2026-04-27 08:16 52.45677 -1.75121 465 ft 157 kts 326°
2026-04-27 08:17 52.46586 -1.76129 1554 ft 158 kts 326°
2026-04-27 08:17 52.47506 -1.77159 2597 ft 164 kts 326°
2026-04-27 08:17 52.48535 -1.78305 3098 ft 200 kts 326°
2026-04-27 08:17 52.49810 -1.79552 3655 ft 222 kts 340°
2026-04-27 08:18 52.51353 -1.79796 4647 ft 227 kts
2026-04-27 08:18 52.52831 -1.78744 5575 ft 236 kts 35°
2026-04-27 08:18 52.53811 -1.76655 5937 ft 239 kts 68°
2026-04-27 08:18 52.54007 -1.73746 6009 ft 274 kts 97°
2026-04-27 08:19 52.53589 -1.70665 6008 ft 278 kts 103°
2026-04-27 08:19 52.53060 -1.67608 5992 ft 280 kts 114°
2026-04-27 08:19 52.51867 -1.65145 6007 ft 276 kts 138°
2026-04-27 08:19 52.50453 -1.63022 6002 ft 275 kts 137°
2026-04-27 08:20 52.49067 -1.60858 5995 ft 275 kts 136°
2026-04-27 08:20 52.47695 -1.58667 6000 ft 275 kts 136°
2026-04-27 08:20 52.46329 -1.56466 5991 ft 276 kts 136°
2026-04-27 08:20 52.44967 -1.54261 5991 ft 275 kts 135°
2026-04-27 08:21 52.43606 -1.52052 5993 ft 276 kts 135°
2026-04-27 08:21 52.42683 -1.50555 5990 ft 276 kts 135°
2026-04-27 08:21 52.41319 -1.48340 5999 ft 276 kts 136°
2026-04-27 08:21 52.39971 -1.46152 5998 ft 277 kts 136°
2026-04-27 08:22 52.38602 -1.43936 5985 ft 277 kts 136°
2026-04-27 08:22 52.37231 -1.41719 5978 ft 277 kts 136°
2026-04-27 08:22 52.35863 -1.39509 5977 ft 277 kts 136°
2026-04-27 08:22 52.34473 -1.37274 5980 ft 277 kts 133°
2026-04-27 08:23 52.33566 -1.34591 5971 ft 277 kts 101°
2026-04-27 08:23 52.33715 -1.31506 5976 ft 275 kts 67°
2026-04-27 08:23 52.34637 -1.28790 5983 ft 273 kts 55°
2026-04-27 08:23 52.35734 -1.26262 5976 ft 273 kts 52°
2026-04-27 08:24 52.36861 -1.23772 5967 ft 270 kts 52°
2026-04-27 08:24 52.37974 -1.21305 5979 ft 270 kts 52°
2026-04-27 08:24 52.39089 -1.18804 5986 ft 274 kts 53°
2026-04-27 08:24 52.40206 -1.16270 5976 ft 275 kts 53°
2026-04-27 08:25 52.41319 -1.13725 5976 ft 275 kts 53°
2026-04-27 08:25 52.42430 -1.11172 5976 ft 275 kts 53°
2026-04-27 08:25 52.43540 -1.08616 5997 ft 276 kts 53°
2026-04-27 08:25 52.44652 -1.06047 5985 ft 276 kts 53°
2026-04-27 08:26 52.45761 -1.03481 5996 ft 275 kts 53°
2026-04-27 08:26 52.46866 -1.00920 5988 ft 275 kts 53°
2026-04-27 08:26 52.48054 -0.98491 5979 ft 273 kts 39°
2026-04-27 08:26 52.49725 -0.97138 5989 ft 269 kts
2026-04-27 08:27 52.51571 -0.97170 5988 ft 266 kts 347°
2026-04-27 08:27 52.53347 -0.98000 5997 ft 265 kts 341°
2026-04-27 08:27 52.55114 -0.98898 5990 ft 266 kts 342°
2026-04-27 08:27 52.56883 -0.99783 5991 ft 266 kts 342°
2026-04-27 08:28 52.58655 -1.00660 5989 ft 266 kts 342°
2026-04-27 08:28 52.60429 -1.01532 5994 ft 266 kts 342°
2026-04-27 08:28 52.62208 -1.02400 5991 ft 267 kts 342°
2026-04-27 08:28 52.63976 -1.03252 5928 ft 265 kts 345°
2026-04-27 08:29 52.65799 -1.03488 5820 ft 257 kts
2026-04-27 08:29 52.67593 -1.03450 5445 ft 259 kts 359°
2026-04-27 08:29 52.69388 -1.03454 5156 ft 256 kts 358°
2026-04-27 08:29 52.71155 -1.03475 5014 ft 249 kts 358°
2026-04-27 08:30 52.72854 -1.03496 4917 ft 239 kts 359°
2026-04-27 08:30 52.74478 -1.03324 4864 ft 227 kts
2026-04-27 08:30 52.75998 -1.03076 4748 ft 213 kts
2026-04-27 08:30 52.77468 -1.02842 4430 ft 210 kts
2026-04-27 08:31 52.78919 -1.02613 4103 ft 209 kts
2026-04-27 08:31 52.80358 -1.02395 3762 ft 207 kts
2026-04-27 08:31 52.81772 -1.02328 3439 ft 202 kts 348°
2026-04-27 08:31 52.82895 -1.03509 3196 ft 192 kts 302°
2026-04-27 08:32 52.83249 -1.05563 3043 ft 185 kts 279°
2026-04-27 08:32 52.83393 -1.07668 2883 ft 183 kts 276°
2026-04-27 08:32 52.83490 -1.09755 2714 ft 181 kts 273°
2026-04-27 08:32 52.83498 -1.11834 2578 ft 180 kts 270°
2026-04-27 08:33 52.83464 -1.13916 2349 ft 181 kts 269°
2026-04-27 08:33 52.83410 -1.15956 2111 ft 172 kts 271°
2026-04-27 08:33 52.83384 -1.17858 1871 ft 158 kts 270°
2026-04-27 08:33 52.83349 -1.19607 1654 ft 145 kts 270°
2026-04-27 08:34 52.83323 -1.21199 1497 ft 135 kts 270°
2026-04-27 08:34 52.83296 -1.22697 1314 ft 129 kts 270°
2026-04-27 08:34 52.83266 -1.24173 1075 ft 129 kts 270°
2026-04-27 08:34 52.83230 -1.25655 938 ft 128 kts 268°
2026-04-27 08:35 52.83196 -1.27106 783 ft 129 kts 270°
2026-04-27 08:35 52.83166 -1.28623 603 ft 131 kts 269°
2026-04-27 08:35 52.83148 -1.30071 423 ft 125 kts 269°
2026-04-27 08:35 52.83123 -1.31478 308 ft 117 kts 269°
2026-04-27 08:36 52.83106 -1.32615 302 ft 78 kts 268°
2026-04-27 08:36 52.83091 -1.33302 309 ft 46 kts 268°
2026-04-27 08:36 52.83084 -1.33647 307 ft 15 kts 268°
2026-04-27 08:36 52.83033 -1.33728 306 ft 12 kts 185°
2026-04-27 08:37 52.82939 -1.33718 304 ft 15 kts 159°
2026-04-27 08:37 52.82917 -1.33545 305 ft 19 kts 89°
2026-04-27 08:37 52.82921 -1.33289 302 ft 26 kts 87°
2026-04-27 08:37 52.82876 -1.33165 300 ft 15 kts 173°
2026-04-27 08:38 52.82796 -1.33136 300 ft 9 kts 121°
2026-04-27 08:38 52.82781 -1.33073 301 ft 4 kts 150°
2026-04-27 08:38 52.82747 -1.33064 300 ft 7 kts 178°
2026-04-27 08:38 52.82724 -1.33063 300 ft 1 kts 178°
2026-04-27 08:39 52.82723 -1.33063 300 ft 0 kts 178°